Location: Chisholm
(54.9102°N, 114.1701°W)
Time: 10:23:57
(UTC+00:00)

N. Korean satellite - Pass Details

Date: 02 December 2021
Orbit: 447 x 491 km, 97.3° (Epoch: 23 January)

Event Time Altitude Azimuth Distance (km) Brightness Sun altitude
Rises 13:35:24 0° 9° (N) 2,486 10.1 -16.6°
Reaches altitude 10° 13:37:30 10° 4° (N) 1,601 9.1 -16.3°
Maximum altitude 13:40:47 45° 290° (WNW) 627 6.6 -15.9°
Drops below altitude 10° 13:44:01 10° 217° (SW) 1,577 8.9 -15.4°
Sets 13:46:05 0° 211° (SSW) 2,442 10.0 -15.1°
